Location: Brest
(52.1000°N, 23.7000°E)
Time: 03:18:42
(UTC+02:00)

GENESIS II - Visible Passes

Search period start: 12 December 2018 00:00
Search period end: 22 December 2018 00:00
Orbit: 490 x 541 km, 64.5° (Epoch: 11 December)

Date Brightness Start Highest point End Pass type
(mag) Time Alt. Az. Time Alt. Az. Time Alt. Az.
15 Dec 6.5 19:03:21 10° S 19:04:11 15° S 19:04:11 15° S visible
16 Dec 5.8 18:47:31 10° S 18:49:30 25° S 18:49:30 25° S visible
17 Dec 5.1 18:31:42 10° S 18:34:42 34° SE 18:34:42 34° SE visible
17 Dec 7.3 20:09:17 10° WSW 20:09:43 13° WSW 20:09:43 13° WSW visible
18 Dec 4.8 18:15:53 10° SSW 18:19:31 37° ESE 18:19:50 37° ESE visible
18 Dec 6.8 19:53:29 10° WSW 19:54:50 19° W 19:54:50 19° W visible
19 Dec 4.8 18:00:04 10° SSW 18:03:42 38° ESE 18:04:53 30° E visible
19 Dec 6.3 19:37:42 10° WSW 19:39:54 27° W 19:39:54 27° W visible
20 Dec 4.9 17:44:14 10° SSW 17:47:54 39° ESE 17:49:52 23° ENE visible
20 Dec 5.7 19:21:54 10° WSW 19:24:53 34° WNW 19:24:53 34° WNW visible
21 Dec 4.9 17:28:24 10° SSW 17:32:05 40° SE 17:34:49 17° ENE visible
21 Dec 5.4 19:06:07 10° WSW 19:09:48 37° NW 19:09:48 37° NW visible
